Starlink 32009

operational
NORAD ID: 60104 Int'l Des: 2024-117 Owner: SPXS Country: US Constellation: starlink
LEOCIRCULAR

Starlink 32009について

説明を読み込み中...

リアルタイム位置

3D地球を読み込み中...

次回通過

高度履歴

Altitude vs Time

uPlot chart will show altitude changes over time

軌道要素

1 60104U 24117P 25349.50783367 .00023690 00000-0 80916-3 0 9995
2 60104 53.1583 68.4156 0001056 115.5057 244.6053 15.30210673 83995
Epoch: Dec 15, 2025 • Age: 27 hours

現在のステータス

高度 477.0 km
速度 7.63 km/s
衛星直下点 35.59°N, 105.85°W
打ち上げ日 Jun 23, 2024
運用期間 1.4 years
タイプ internet

技術仕様

分類 Payload
質量 730.00 kg
乾燥質量 700.00 kg
総質量 730.00 kg
長さ 0.30 m
直径 4.10 m
スパン 29.00 m
形状 Box + pan
製造者 SPXS
バスタイプ Starlink V2M
フェーズステータス In Orbit
所有者/国 SPXS/US

大規模コンステレーション

Loading constellations...